Theta_e
307 307 307 307 307 305 304 300 292 310 309 293 292 292 295 296 298 300 301 302 296 298 301 300 298 297 300 303 302 299 304 301 295 298 304 306 304 302 302 296 295 298 297 295
307 307 307 307 307 306 304 296 299 309 305 289 288 293 297 300 298 297 299 300 300 301 296 295 301 302 305 304 302 301 305 300 293 296 300 304 302 303 304 303 303 298 295 297
307 307 307 307 307 306 305 298 292 301 297 296 289 291 295 298 303 298 302 300 301 297 294 298 300 299 305 305 303 311 308 301 299 293 297 301 299 301 302 301 297 298 298 301
307 307 307 307 307 306 305 300 293 296 292 293 294 294 294 293 297 303 301 299 299 296 292 297 298 303 304 303 307 305 305 297 298 299 301 301 298 300 301 301 302 297 299 299
307 307 307 307 307 306 305 298 293 294 293 297 294 293 291 290 298 296 294 295 296 293 289 297 297 303 303 302 305 304 307 298 300 296 302 302 299 301 302 302 302 302 301 299
307 307 307 308 307 306 302 304 303 294 293 295 290 288 289 294 299 299 300 299 295 290 290 301 305 309 308 308 304 303 303 301 298 292 299 298 294 299 301 302 303 301 296 301
307 307 307 308 308 307 308 305 300 292 289 292 291 292 293 293 298 296 298 300 299 299 306 304 305 305 307 307 306 307 303 301 301 294 297 288 298 301 302 301 300 301 301 303
307 307 308 308 308 308 307 309 302 295 289 293 293 293 293 292 294 295 298 299 303 307 303 296 291 293 297 298 302 305 307 301 298 293 292 294 295 298 297 297 297 302 301 302
307 307 308 308 308 308 308 309 308 300 293 293 295 293 295 290 290 292 298 304 307 307 300 294 287 286 290 289 293 303 302 304 299 296 289 285 297 302 305 305 295 304 304 306
307 307 308 308 309 308 307 307 312 304 297 300 299 293 292 298 295 293 299 301 303 306 298 293 289 289 295 289 290 295 297 297 294 293 293 296 303 303 305 293 298 307 307 307
307 307 308 308 309 308 307 307 312 304 298 300 302 300 297 299 299 294 301 301 301 301 297 295 295 293 294 293 295 295 294 293 293 294 291 288 305 303 298 305 308 309 307 308
307 308 308 308 308 308 307 302 309 309 303 302 308 308 308 306 304 300 304 302 302 303 300 300 300 295 298 296 290 299 292 297 296 299 299 306 309 308 310 309 307 306 306 306
307 307 308 308 308 307 307 307 308 306 300 301 302 302 309 312 310 312 299 304 307 305 308 301 300 296 301 295 295 296 300 303 299 300 303 304 304 307 308 308 306 306 307 308
307 307 308 307 307 307 306 307 308 306 302 297 299 309 307 312 312 311 311 309 310 309 306 302 300 296 302 298 299 296 300 301 298 300 302 303 304 304 305 306 307 306 307 307
306 307 307 307 307 307 308 310 310 310 300 295 298 304 309 310 310 308 309 309 307 304 301 300 297 300 301 299 301 296 301 299 298 295 302 303 302 304 305 304 305 306 305 305
306 307 307 307 307 307 306 305 311 310 310 301 293 304 303 307 308 307 306 307 306 304 302 300 300 302 301 298 293 299 300 302 303 301 303 302 304 304 306 304 304 305 305 304
306 306 306 307 307 307 300 299 304 307 310 300 294 296 302 306 307 309 306 307 304 303 301 298 299 299 301 298 292 298 301 302 303 304 303 301 303 301 304 303 304 304 304 304
306 306 307 307 306 306 305 309 307 307 304 299 295 297 297 302 299 301 307 300 301 301 297 299 297 301 301 291 296 299 300 302 302 302 303 303 304 305 302 302 303 302 301 300
305 306 307 308 306 303 304 307 307 310 303 293 295 292 289 304 301 302 303 302 295 303 295 297 298 295 291 294 296 298 300 300 300 301 302 303 300 301 300 300 299 298 299 299
305 307 301 296 304 306 308 305 302 300 298 299 294 299 294 297 297 299 296 299 295 289 296 301 293 295 299 300 302 302 303 303 302 299 298 299 298 298 298 298 298 298 297 296
303 299 299 305 307 305 300 294 293 296 292 295 295 299 294 303 296 296 300 294 296 289 293 293 292 292 298 300 300 300 301 301 301 300 300 299 298 297 297 297 297 295 293 291
302 301 304 305 299 296 292 291 293 291 289 295 294 295 297 302 304 297 297 292 295 287 298 293 288 295 299 298 298 300 299 298 298 299 298 298 299 298 295 293 292 291 291 290
305 300 296 296 297 289 288 287 290 291 293 296 295 295 301 301 300 296 294 288 289 298 290 290 293 298 298 299 298 297 299 299 298 297 298 298 297 295 293 290 290 290 288 288
296 292 289 291 290 291 290 290 291 295 294 296 298 296 296 298 297 298 289 292 294 287 288 288 295 298 299 298 298 297 296 298 297 297 297 296 293 290 290 289 289 288 286 286
293 293 288 291 293 292 293 296 295 296 297 295 294 298 299 294 293 295 292 288 286 290 288 291 298 299 298 297 297 297 296 297 297 297 296 296 292 290 288 289 288 287 286 285
296 294 292 298 295 294 294 294 292 298 297 298 297 294 292 290 292 289 287 287 285 289 293 298 299 298 298 298 298 297 297 297 297 296 296 295 291 289 288 288 287 286 285 283
292 293 298 300 300 296 299 300 298 299 295 292 295 289 288 294 289 287 292 287 291 295 298 299 300 299 298 299 298 298 297 297 297 296 296 295 293 290 288 285 285 285 285 285
Wind_Speed
24 23 23 24 24 23 14 6 7 6 7 2 3 13 22 26 24 18 20 5 9 13 19 23 24 22 15 28 22 24 11 8 17 23 17 17 18 16 20 11 16 11 7 8
23 23 23 23 24 20 12 7 8 3 2 3 2 11 23 24 26 20 8 6 7 8 3 4 20 22 20 30 27 22 9 6 13 15 3 9 13 19 14 16 8 10 10 10
23 23 23 24 23 19 9 5 5 1 2 5 4 8 13 13 18 18 11 2 4 2 6 10 15 24 23 28 24 6 7 2 16 10 16 17 20 17 19 17 11 8 7 9
22 22 24 25 24 23 6 1 4 7 7 7 14 12 9 15 10 10 11 2 2 4 5 19 11 25 22 29 20 13 10 7 3 5 12 20 22 10 14 14 17 13 7 8
22 22 23 23 23 28 2 6 4 4 13 13 16 7 4 8 8 5 4 6 7 7 4 13 11 17 23 25 27 24 18 13 20 5 16 15 17 20 18 16 13 15 4 4
21 21 22 21 21 21 6 8 5 3 11 12 9 7 8 12 5 8 1 13 8 8 6 8 7 6 6 16 20 19 13 8 10 8 8 8 6 9 9 9 8 8 9 8
21 21 21 20 20 17 7 4 3 4 6 9 14 14 14 20 14 9 8 6 7 6 4 7 18 22 18 13 9 8 11 13 5 5 10 9 10 5 3 11 8 8 7 7
20 20 19 19 20 19 10 3 4 4 5 9 12 17 16 15 14 11 14 11 9 11 9 4 9 7 8 12 11 2 12 6 6 5 9 12 7 4 5 9 11 4 8 6
20 19 19 18 20 19 12 3 4 3 5 8 11 12 12 6 6 6 7 6 5 8 5 6 6 4 5 4 5 6 3 6 3 8 4 4 12 8 4 1 11 6 6 9
22 20 19 18 18 19 14 4 8 4 5 5 13 7 8 7 3 3 5 10 7 7 6 9 4 8 10 5 6 16 10 6 6 8 2 9 9 5 4 8 7 8 3 5
22 21 18 16 16 16 12 5 5 7 5 5 9 5 8 9 12 6 9 4 8 8 8 8 6 8 4 6 8 6 5 5 5 5 3 4 8 5 5 9 8 7 4 5
21 20 18 17 14 15 17 6 6 4 5 5 4 5 9 6 7 8 8 7 8 7 5 5 4 6 6 10 5 3 4 5 3 5 6 7 12 11 9 3 8 5 4 4
20 19 16 16 16 16 14 7 8 7 7 4 3 8 6 8 9 8 5 7 11 7 7 5 5 7 6 5 9 5 4 2 3 6 9 9 9 6 5 4 4 4 2 5
19 19 16 17 17 15 14 5 7 6 5 3 7 10 8 6 6 6 6 7 3 6 5 5 4 4 7 8 6 6 7 4 7 10 8 10 10 9 5 5 4 4 6 6
19 19 18 18 17 15 11 2 4 5 3 4 5 3 17 12 6 7 8 7 8 5 5 5 5 5 4 5 2 9 3 6 4 4 5 5 8 4 3 4 4 5 6 6
20 21 20 17 15 13 7 2 2 8 3 4 3 3 8 11 8 7 6 6 7 5 4 4 6 5 7 2 9 7 7 7 7 6 4 4 4 3 4 4 5 8 4 4
21 20 17 13 12 8 3 4 6 9 8 4 3 1 5 11 7 2 5 6 5 5 4 6 5 5 6 4 10 8 7 5 3 2 2 1 10 6 4 3 4 0 3 4
21 19 13 10 10 6 2 3 5 9 5 3 3 2 4 3 5 3 4 3 4 6 4 3 5 2 2 5 5 8 3 4 5 7 4 3 2 2 2 2 4 7 6 6
22 18 12 6 5 1 3 11 12 5 4 2 4 2 2 5 3 2 3 3 2 2 2 2 3 2 3 3 2 1 2 3 4 6 4 2 5 7 8 5 5 8 10 9
23 10 3 1 3 7 11 5 2 2 2 1 2 3 2 2 1 2 2 2 1 2 3 2 2 4 4 5 8 6 6 5 6 7 7 6 6 8 10 10 9 11 11 9
2 4 2 5 1 4 2 2 0 0 1 1 2 1 3 4 1 1 2 1 1 2 3 1 2 4 5 5 9 8 6 6 8 7 8 9 8 9 9 11 9 10 10 9
7 6 5 4 3 2 3 1 1 1 2 4 2 1 2 2 2 1 1 2 2 3 3 2 3 4 6 7 7 10 9 8 9 10 9 8 9 12 9 9 8 7 7 7
3 5 3 2 1 2 4 1 3 3 6 6 6 3 0 1 1 1 1 2 1 1 2 2 4 8 7 5 8 8 8 9 9 10 9 10 15 13 10 8 8 7 7 8
3 2 2 4 3 5 4 6 5 4 1 3 5 4 2 2 2 1 2 1 3 3 3 4 3 8 6 8 7 8 9 8 9 10 10 13 11 9 8 8 8 8 8 8
2 2 2 3 2 3 4 4 3 1 1 2 2 5 1 3 2 2 2 0 4 4 4 2 6 7 8 8 8 8 8 8 9 10 10 12 10 9 9 9 9 9 9 9
2 2 3 2 4 4 1 1 2 2 2 3 4 3 3 0 1 1 2 4 3 2 3 6 7 9 9 8 8 8 8 8 8 9 9 12 11 9 9 10 10 9 9 9
2 2 3 1 2 2 1 0 2 1 2 2 2 2 4 3 3 1 4 2 2 6 6 4 8 10 8 8 7 8 7 8 9 9 9 12 13 11 10 10 8 8 8 7
Wind_Direction
332 333 333 333 331 330 312 313 293 103 141 197 225 241 255 264 264 253 262 9 65 321 190 186 194 183 182 218 210 214 187 231 189 179 184 223 206 215 201 222 215 243 259 82
336 336 336 332 331 335 329 295 309 62 122 295 261 279 283 275 262 256 212 268 125 238 190 227 176 187 188 191 216 207 157 154 205 158 165 211 233 209 222 215 231 224 225 136
338 339 336 333 329 329 322 300 330 312 150 220 256 284 296 299 282 239 166 93 102 261 346 288 212 162 191 191 178 163 157 198 211 193 193 190 209 216 211 213 221 229 210 126
341 342 339 337 332 323 310 257 317 3 307 326 294 338 296 309 280 50 20 99 132 147 222 240 170 162 177 174 166 177 177 227 18 304 271 190 202 186 223 161 208 231 233 262
343 341 341 341 342 325 244 346 358 298 290 300 334 339 305 295 101 54 37 81 89 103 34 309 165 178 158 166 169 178 191 179 175 133 143 188 179 200 196 213 217 218 246 260
342 340 342 344 345 337 340 4 10 279 294 357 342 340 289 305 22 66 163 135 116 88 254 347 49 100 119 147 177 172 187 185 178 137 134 127 188 180 196 204 220 260 227 236
341 341 343 343 345 344 338 13 309 302 303 339 341 341 2 357 69 98 59 161 119 126 148 288 60 63 60 96 135 183 148 180 141 164 150 199 82 35 269 206 203 181 258 90
341 341 343 343 342 338 331 338 352 313 302 331 344 349 10 8 25 42 76 47 96 140 149 24 51 25 55 24 17 113 144 98 169 165 170 106 140 152 160 191 167 199 203 154
342 342 341 343 341 338 327 330 4 284 300 20 352 339 3 18 6 3 37 38 207 206 208 67 52 92 105 83 17 48 20 177 130 145 172 172 91 107 43 344 148 163 174 142
341 342 339 341 344 339 326 306 357 314 300 336 6 1 323 334 60 358 350 358 350 285 126 119 99 58 119 108 127 169 149 105 135 124 208 84 95 135 186 221 92 114 189 110
338 341 340 340 345 342 331 335 20 339 308 336 19 50 5 349 15 8 328 263 1 354 26 77 92 128 97 94 136 137 131 121 133 131 168 114 128 151 292 86 107 107 74 48
335 339 342 339 343 344 332 327 350 9 279 331 49 10 52 23 354 334 323 39 35 359 15 34 89 117 147 146 111 92 102 67 136 49 73 106 77 67 92 69 116 61 32 82
333 340 345 344 342 340 337 313 6 321 264 269 96 10 22 16 4 354 324 48 338 36 322 359 16 66 338 73 98 115 92 91 101 163 128 109 98 86 108 73 28 25 284 302
331 333 337 335 331 328 320 326 346 349 313 284 79 33 23 6 9 360 16 351 340 276 351 19 50 79 337 61 60 98 33 204 184 118 123 137 153 109 65 354 323 289 272 289
328 330 329 329 323 318 297 257 3 7 345 325 8 25 12 5 25 29 18 22 333 21 48 51 62 59 339 46 262 95 16 10 22 82 57 49 145 83 32 300 284 323 350 334
327 327 324 323 318 314 289 216 68 19 349 291 345 85 14 12 12 25 30 357 4 20 32 69 84 14 311 200 101 74 73 45 11 47 57 360 11 265 353 339 13 17 342 29
323 321 318 316 313 314 16 13 356 327 301 272 330 315 43 345 320 31 10 343 35 3 45 17 46 61 311 331 80 94 63 60 76 67 267 221 46 62 45 11 30 32 306 271
320 315 307 298 290 262 218 151 309 326 277 276 299 97 95 0 348 13 13 329 45 35 41 352 37 22 3 49 63 71 77 100 73 67 14 69 31 359 86 5 335 314 312 340
314 306 299 259 230 312 15 340 297 256 301 327 321 4 58 351 21 350 342 19 51 64 97 57 47 31 57 48 283 211 125 84 41 2 40 52 347 29 34 11 328 301 310 323
304 287 229 7 20 326 284 184 230 181 244 306 315 47 95 124 300 70 333 345 105 100 78 128 149 105 35 49 70 52 58 58 21 13 19 2 342 354 352 350 344 9 14 351
276 336 343 344 224 261 239 286 174 261 236 73 276 52 109 178 321 124 186 245 59 171 117 172 173 112 88 79 84 87 75 54 34 26 26 26 10 4 2 27 11 6 359 3
338 311 275 277 259 272 265 274 92 46 42 340 69 352 340 24 337 8 54 314 265 65 142 196 150 120 104 84 64 55 49 47 53 46 43 29 43 46 25 13 8 355 3 9
205 234 249 318 246 299 281 37 101 34 4 354 341 291 63 327 297 107 129 271 48 235 203 150 59 140 124 127 85 76 64 70 63 48 44 43 61 39 27 15 11 8 19 19
259 308 270 308 23 37 351 343 9 2 33 328 325 298 353 262 212 145 264 77 226 245 206 76 125 127 118 93 101 79 67 60 61 51 43 55 72 54 29 28 20 31 30 32
294 295 308 53 82 242 257 351 303 27 262 270 321 266 327 285 266 130 291 271 252 19 73 123 160 133 107 102 90 75 65 59 54 52 44 55 69 50 45 38 41 44 46 46
270 252 247 178 197 124 24 222 275 310 334 317 224 253 257 186 354 253 262 331 40 71 122 128 161 124 109 101 88 70 65 66 61 60 57 66 76 63 63 55 52 52 54 54
270 221 245 271 79 259 299 210 118 112 251 248 275 321 30 356 328 311 17 352 106 133 149 163 108 110 122 111 104 84 75 73 72 69 67 72 84 74 68 68 63 64 58 60